Flag for Argentina Weather past 2 weeks in Salta, Salta, Argentina

Now
50 °F

Clear.


Feels Like: 49 °F
Forecast: 44 / 65 °F
Wind: 3 mph from West

Location: Salta Aerodrome

Current Time: May 30, 2015 at 12:38:27 AM

Latest Report: May 30, 2015 at 12:00 AM


Visibility: 10 mi

Pressure: 30.04 "Hg

Humidity: 88%

Dew point: 46 °F

Location of SaltaLocation

Historic Weather in Salta — Graph

°F

Salta temperature yesterday

Maximum temperature yesterday: 61 °F (at 2:00 PM)
Minimum temperature yesterday: 48 °F (at 11:00 PM)
Average temperature yesterday: 55 °F

Past Weeks' High & Low Weather Summary

 TemperatureHumidityPressure
High77 °F (May 23, 3:00 PM)100% (May 15, 2:00 AM)30.30 "Hg (May 15, 2:00 AM)
Low46 °F (May 15, 7:00 AM)42% (May 23, 3:00 PM)29.83 "Hg (May 23, 4:00 PM)
Average60 °F81%30.06 "Hg
* Reported May 14 11:00 PM — May 29 11:00 PM, Salta, Weather by CustomWeather, © 2015

Note: Actual official high and low records may vary slightly from our data, if they occured in-between our weather recording intervals... More about our weather records

Advertising

Salta weather history for previous 24 hours

 ConditionsComfort  
Time TempWeatherWind HumidityBarometerVisibility
11:00 PM
Fri, May 29
48 °FClear.No wind94%30.04 "Hg10 mi
10:00 PM52 °FClear.2 mph88%30.04 "Hg10 mi
9:00 PM54 °FClear.3 mph88%30.01 "Hg10 mi
8:00 PM55 °FPassing clouds.6 mph82%30.01 "HgN/A
7:00 PM55 °FPartly cloudy.7 mph82%29.95 "HgN/A
6:00 PM57 °FPassing clouds.9 mph77%29.92 "HgN/A
5:00 PM61 °FPartly sunny.10 mph68%29.89 "HgN/A
4:00 PM61 °FPartly sunny.5 mph68%29.86 "HgN/A
3:00 PM61 °FPartly sunny.6 mph68%29.86 "HgN/A
2:00 PM61 °FBroken clouds.3 mph63%29.86 "HgN/A
1:00 PM59 °FPartly sunny.3 mph68%29.89 "HgN/A
12:00 PM57 °FPartly sunny.No wind72%29.92 "HgN/A
11:00 AM55 °FMore clouds than sun.2 mph72%29.95 "HgN/A
10:00 AM55 °FMore clouds than sun.No wind72%29.95 "HgN/A
9:00 AM54 °FLow clouds.2 mph82%29.95 "HgN/A
8:00 AM54 °FLow clouds.2 mph94%29.92 "HgN/A
7:00 AM54 °FLow clouds.No wind94%29.92 "HgN/A
6:00 AM54 °FLow clouds.No wind94%29.92 "HgN/A
5:00 AM54 °FLow clouds.No wind94%29.92 "HgN/A
4:00 AM54 °FOvercast.2 mph94%29.95 "HgN/A
3:00 AM54 °FOvercast.3 mph94%29.98 "HgN/A
2:00 AM54 °FOvercast.3 mph94%30.01 "HgN/A
1:00 AM54 °FOvercast.No wind94%30.01 "HgN/A
12:00 AM54 °FPassing clouds.3 mph88%30.04 "HgN/A
Weather by CustomWeather, © 2015

See weather overviewHow to use our weather pages